Regional Weather Roundup
Issued by NWS Wilmington, NC

Home | Current Version | Previous Version | Text Only | Print | Product List | Glossary On
Versions: 1 2 3 4 5 6 7 8 9 10 11 12 13 14 15 16 17 18 19 20 21 22 23 24 25 26 27 28 29 30 31 32 33 34 35 36 37 38 39 40 41 42 43 44 45 46 47 48 49 50
000
ASUS42 KILM 271213
RWRILM
RWRILM
REGIONAL HOURLY WEATHER ROUNDUP
NATIONAL WEATHER SERVICE WILMINGTON NC
800 AM EDT MON APR 27 2015

NOTE: "FAIR" INDICATES FEW OR NO CLOUDS BELOW 12,000 FEET WITH NO
SIGNIFICANT WEATHER AND/OR OBSTRUCTIONS TO VISIBILITY.

...............WFO WILMINGTON COUNTY WARNING AREA...............

......COASTAL NC AND SC COUNTIES......

CITY           SKY/WX    TMP DP  RH WIND       PRES   REMARKS
WILMINGTON     SUNNY     52  48  86 N9        29.79R
N MYRTLE BEACH SUNNY     52  49  89 N7        29.79R
MYRTLE BEACH   SUNNY     54  46  76 N12       29.81R

......INLAND NC AND SC COUNTIES.......

CITY           SKY/WX    TMP DP  RH WIND       PRES   REMARKS
LUMBERTON      SUNNY     51  49  92 NW3       29.80S
ELIZABETHTOWN  SUNNY     49  49  99 CALM      29.80R
WHITEVILLE     SUNNY     51  48  91 N3        29.80R
FLORENCE       SUNNY     52  48  86 N6        29.82R
DARLINGTON     SUNNY     50  45  81 NW5       29.84R

....................REST OF NORTH CAROLINA......................

.........EASTERN NC.........

CITY           SKY/WX    TMP DP  RH WIND       PRES   REMARKS
CAPE HATTERAS  SUNNY     53  40  61 VRB7      29.75R
JACKSONVILLE   SUNNY     48  45  87 CALM      29.79S
MOREHEAD CITY  SUNNY     53  47  79 N10       29.77R
KENANSVILLE    SUNNY     48  47  95 N3        29.80S
NEW BERN       SUNNY     52  46  80 N7        29.79R
ELIZABETH CITY SUNNY     50  45  83 W5        29.77R

.........CENTRAL NC.........

CITY           SKY/WX    TMP DP  RH WIND       PRES   REMARKS
RALEIGH DURHAM MOSUNNY   46  45  96 CALM      29.80R
ROCKY MOUNT    SUNNY     49  45  86 W5        29.79S
ROANOKE RAPIDS NOT AVBL
FAYETTEVILLE   SUNNY     51  47  86 NW3       29.80R
HOFFMAN        SUNNY     47  46  96 NW5       29.85R

.........WESTERN NC.........

CITY           SKY/WX    TMP DP  RH WIND       PRES   REMARKS
CHARLOTTE      MOSUNNY   48  47  96 CALM      29.83R
GREENSBORO     MOSUNNY   47  44  90 NW3       29.81R
HICKORY        NOT AVBL
BOONE          NOT AVBL
ASHEVILLE      NOT AVBL

.....................REST OF SOUTH CAROLINA.....................

.........EASTERN SC.........

CITY           SKY/WX    TMP DP  RH WIND       PRES   REMARKS
CHARLESTON     PTSUNNY   54  49  83 N5        29.81R
BEAUFORT MCAS  PTSUNNY   56  50  80 N10       29.83R
HILTON HEAD    CLOUDY    59  55  88 N7        29.83R

.........CENTRAL SC.........

CITY           SKY/WX    TMP DP  RH WIND       PRES   REMARKS
COLUMBIA       MOSUNNY   55  47  74 N6        29.83R
ORANGEBURG     PTSUNNY   54  48  80 N5        29.83R
SUMTER SHAW    MOSUNNY   53  48  83 N8        29.81R

.........WESTERN SC.........

CITY           SKY/WX    TMP DP  RH WIND       PRES   REMARKS
GREENVILLE     NOT AVBL
ROCK HILL      SUNNY     48  47  96 CALM      29.83S
ANDERSON       CLOUDY    55  50  83 CALM      29.85R
CLEMSON        NOT AVBL
GREENWOOD      CLOUDY    53  50  89 CALM      29.86R


...................COASTAL AND OFFSHORE REPORTS..................

................LOCAL PIERS AND NC RESERVE................


STATION/POSITION TIME  SKY/WX   TEMP    WIND        PRES    VSBY
                                AIR SEA DIR/SP/G
                 (UTC)          (F)     (DEG/KT/KT) (MB)    (MI)
JOHNY MRCER PIER 1100            51 66  330/  8/ 10 1007.3R
NC RESRV MASNBRO 1045            49     180/  1     1007.0
OCEAN CREST PIER 1202            52 65  320/  9/ 11 1007.5R
SPRINGMAID  PIER 1100            51 67  330/  8/ 10 1008.0R


................COASTAL AND OFFSHORE BUOYS................


STATION/POSITION TIME  SKY/WX   TEMP    WIND        PRES    VSBY
                                AIR SEA DIR/SP/G
                 (UTC)          (F)     (DEG/KT/KT) (MB)    (MI)
DIMNDSHOAL 41025 1150            59 74  360/ 19/ 23 1006.3R
WVE H/P(F/S)=  6/ 8 WND WVE H/P(F/S)=  3/ 5 SWL H/P/D(F/S/D)=  5/ 80/ 8

CAPE LOOKOUT     1200            54     340/ 13/ 15 1007.5R
ONSLOW BAY 41036 NOT AVBL
5 WRITEBCH 41038 NOT AVBL
MASONBORO  41110 1119               65                N/A
WVE H/P(F/S)=  3/ 7 WND WVE H/P(F/S)=  3/ 7

WILM HARBR 41108 1111               65                N/A
WVE H/P(F/S)=  3/ 7 WND WVE H/P(F/S)=  3/ 7

27WRITEBCH 41037 1100            55 72   50/ 10/ 14   N/A
FRYING PAN 41013 1150            60 71   10/ 12/ 14 1007.9R
WVE H/P(F/S)=  4/ 9 WND WVE H/P(F/S)=  3/ 5 SWL H/P/D(F/S/D)=  2/ 80/ 9

SUNST NRSH 41024 1108            53     350/ 12/ 14   N/A
CAPRS NRSH 41029 1108            56      10/ 14/ 19 1008.9R
EDISTO     41004 1150            62 71  360/ 12/ 16 1007.6R
WVE H/P(F/S)=  4/ 6 WND WVE H/P(F/S)=  3/ 6 SWL H/P/D(F/S/D)=  2/ 8



..........OFFSHORE BUOYS BEYOND 100 NM OFFSHORE...........
.....IN A TRIANGLE---HAT TO BERMUDA TO BAHAMAS TO HAT.....


STATION/POSITION TIME  SKY/WX   TEMP    WIND        PRES    VSBY
                                AIR SEA DIR/SP/G
                 (UTC)          (F)     (DEG/KT/KT) (MB)    (MI)
150E HAT   41001 NOT AVBL
W BERMUDA  41048 1150            70 69  290/ 12/ 14 1003.0R
WVE H/P(F/S)=  8/ 8 WND WVE H/P(F/S)=  3/ 5 SWL H/P/D(F/S/D)=  7/ 8

ATLANTIC S 41049 1150            77 77  240/ 19/ 23 1007.0S
WVE H/P(F/S)=  9/ 8 WND WVE H/P(F/S)=  8/ 8

E BAHAMAS  41046 1150            80 80  210/ 16/ 17 1010.2R
WVE H/P(F/S)=  4/ 8 WND WVE H/P(F/S)=  3/ 6 SWL H/P/D(F/S/D)=  2/ 30/ 8

NE BAHAMAS 41047 1150            78 77  240/ 21/ 25 1005.3R
WVE H/P(F/S)=  6/ 7 WND WVE H/P(F/S)=  5/ 7 SWL H/P/D(F/S/D)=  2/180/13

120E CANVRL41010 1120            80 79  280/ 16/ 17 1006.0R

END


USA.gov is the U.S. government's official web portal to all federal, state and local government web resources and services.